User: anonymous   Login
Location: Unspecified
(0.0000°N, 0.0000°E)
Time: 09:07:07
(UTC+02:00)
Language:

ASC 2 Rocket - Orbit

View from above orbital plane
View from above orbital plane
View from above satellite
View from above satellite

Ground track
Ground track

The orbit data is extracted from the following two-line orbital elements,

1 21228U 91028B   17118.91930240 +.00000129 +00000-0 -76173-5 0  9993
2 21228 023.9948 291.7721 1143340 004.7889 154.2027 12.53314565191369
Epoch (UTC): 28 April 2017 22:03:47
Eccentricity: 0.1143340
inclination: 23.9948°
perigee height: 555 km
apogee height: 2346 km
right ascension of ascending node: 291.7721°
argument of perigee: 4.7889°
revolutions per day: 12.53314565
mean anomaly at epoch: 154.2027°
orbit number at epoch: 19136

The dashed part of the orbit path shows where the satellite is in the earth's shadow,  

DLR